Regional Weather Roundup
Issued by NWS Newport/Morehead, NC

Current Version | Previous Version | Graphics & Text | Print | Product List | Glossary On
Versions: 1 2 3 4 5 6 7 8 9 10 11 12 13 14 15 16 17 18 19 20 21 22 23 24 25 26 27 28 29 30 31 32 33 34 35 36 37 38 39 40 41 42 43 44 45 46 47 48 49 50
000 ASUS42 KMHX 282212 RWRMHX WEATHER ROUNDUP FOR EASTERN NORTH CAROLINA NATIONAL WEATHER SERVICE NEWPORT/MOREHEAD CITY NC 500 PM EST SAT FEB 28 2015 NOTE: "FAIR" INDICATES FEW OR NO CLOUDS BELOW 12,000 FEET WITH NO SIGNIFICANT WEATHER AND/OR OBSTRUCTIONS TO VISIBILITY NCZ015>017-031-032-045>047-102-103-282300- NORTH COAST CITY SKY/WX TMP DP RH WIND PRES REMARKS EDENTON SUNNY 36 20 52 NE8 30.73S ELIZABETH CITY SUNNY 32 19 58 N12 30.75R KITTY HAWK CLEAR 34 23 64 N8G18 30.72R MANTEO SUNNY 34 21 60 N14G20 30.73S $$ NCZ045>047-081-094-103-104-282300- CENTRAL COAST CITY SKY/WX TMP DP RH WIND PRES REMARKS FRISCO PTSUNNY 35 27 72 NE12G24 30.68F SWANQUARTER N/A 36 N/A N/A NE13G21 30.65S $$ NCZ095-097-098-100-101-282300- SOUTHERN COAST CITY SKY/WX TMP DP RH WIND PRES REMARKS BEAUFORT CLOUDY 38 23 55 N17 30.67S CEDAR ISLAND N/A 36 N/A N/A VRB15G22 30.71S JACKSONVILLE CLOUDY 43 22 43 NE10 30.66S PINEY ISLAND N/A N/A N/A N/A MISG 30.68F WILMINGTON CLOUDY 45 23 42 NE15 30.63F $$ NCZ011>013-027>030-043-044-078>080-089-090>093-098-282300- COASTAL PLAIN CITY SKY/WX TMP DP RH WIND PRES REMARKS AHOSKIE SUNNY 36 14 40 NE5 30.73S CLINTON MOSUNNY 42 22 44 NE7 30.67S ELIZABETHTOWN PTSUNNY 43 22 43 NE7 30.65S GOLDSBORO SUNNY 40 23 50 N9 30.67 GREENVILLE SUNNY 39 19 45 NE9 30.69S HAVELOCK PTSUNNY 41 20 43 NE17 30.68F KENANSVILLE MOSUNNY 41 21 44 N8 30.68S KINSTON SUNNY 41 21 45 N10 30.69S NEW BERN MOSUNNY 39 20 46 NE9 30.70S RICHLANDS PTSUNNY 43 21 42 NE13 30.66F ROCKY MOUNT SUNNY 39 16 39 N8 30.71S WASHINGTON SUNNY 38 19 46 NE8 30.71S WHITEVILLE MOSUNNY 45 24 44 NE7 30.62S $$ AMZ130-135-150-152-154-156-158-170-250-252-270-ANZ085-086-088-633-658-670-282300- MARINE OBSERVATIONS STATION/POSITION TIME TEMP WIND PRES WAVE SWELL AIR SEA DIR/SP/G HT/PER HT/PER (UTC) (F) (DEG/KT/KT) (MB) (FT/S) (FT/S) CHESAPEAKE LIGHT 2100 28 30/ 14/ 15 1042.0 64 E VA BEACH 2150 39 60 10/ 17/ 21 1039.4 5/10 3/10 DUCK 2112 31 35 20/ 19/ 21 1039.6 2 E DUCK 2111 34 N/A 5/ 6 2/11 10 NE DUCK 2122 37 N/A 5/ 6 2/11 OREGON INLET 2112 34 39 360/ 14/ 20 1040.0 HATTERAS CG 2106 35 40 10/ 24/ 29 1039.5 CAPE LOOKOUT 2200 38 20/ 19/ 23 1038.0 BEAUFORT LAB 2100 38 40 20/ 17/ 21 1037.5 27 SE WRIGHTSVLE NOT AVBL 5 SE WRIGHTSVLE NOT AVBL 225 S CAPE HAT 2150 65 69 50/ 23/ 27 1032.3 10/ 8 3/11 41 SE CHARLESTON 2150 53 67 30/ 27/ 33 1032.7 9/ 8 $$

USA.gov is the U.S. government's official web portal to all federal, state and local government web resources and services.